Location: Limerick
(52.6800°N, 8.6400°W)
Time: 11:38:36
(UTC+01:00)

ISS - All Passes

Search period start: 26 May 2016 00:00
Search period end: 05 June 2016 00:00
Orbit: 402 x 404 km, 51.6° (Epoch: 26 May)

Date Brightness Start Highest point End Pass type
(mag) Time Alt. Az. Time Alt. Az. Time Alt. Az.
26 May - 00:22:32 10° SW 00:25:31 32° SSE 00:28:29 10° E visible
26 May - 01:58:27 10° WSW 02:01:43 72° S 02:04:59 10° E visible
26 May - 03:34:51 10° W 03:38:04 59° SSW 03:41:18 10° ESE visible
26 May - 05:11:35 10° W 05:14:07 21° SSW 05:16:39 10° SSE daylight
26 May - 23:30:16 10° SSW 23:32:55 23° SSE 23:35:34 10° E visible
27 May - 01:05:46 10° WSW 01:09:00 62° SSE 01:12:15 10° E visible
27 May - 02:42:06 10° W 02:45:22 70° S 02:48:36 10° ESE visible
27 May - 04:18:37 10° W 04:21:32 30° SSW 04:24:27 10° SE visible
27 May - 22:38:21 10° S 22:40:23 15° SE 22:42:25 10° ESE visible
28 May - 00:13:07 10° WSW 00:16:18 49° SSE 00:19:28 10° E visible
28 May - 01:49:21 10° W 01:52:37 75° S 01:55:54 10° E visible
28 May - 03:25:47 10° W 03:28:54 42° SSW 03:32:00 10° SE visible
28 May - 05:03:18 10° WSW 05:04:43 12° SW 05:06:08 10° SSW daylight
28 May - 23:20:36 10° SW 23:23:38 36° SSE 23:26:41 10° E visible
29 May - 00:56:36 10° W 00:59:52 74° S 01:03:09 10° E visible
29 May - 02:33:00 10° W 02:36:13 55° SSW 02:39:25 10° ESE visible
29 May - 04:09:50 10° W 04:12:13 19° SW 04:14:35 10° SSE visible
29 May - 22:28:15 10° SSW 22:31:00 25° SSE 22:33:47 10° E visible
30 May - 00:03:53 10° WSW 00:07:08 65° SSE 00:10:23 10° E visible
30 May - 01:40:14 10° W 01:43:30 67° S 01:46:45 10° ESE visible
30 May - 03:16:49 10° W 03:19:38 27° SSW 03:22:27 10° SSE visible
30 May - 21:36:11 10° S 21:38:26 17° SE 21:40:42 10° E daylight
30 May - 23:11:12 10° WSW 23:14:24 53° SSE 23:17:37 10° E visible
31 May - 00:47:28 10° W 00:50:45 74° S 00:54:00 10° E visible
31 May - 02:23:56 10° W 02:27:00 38° SSW 02:30:03 10° SE visible
31 May - 04:01:58 10° SW 04:02:45 11° SW 04:03:33 10° SSW visible
31 May - 20:44:48 10° SSE 20:45:56 11° SE 20:47:03 10° ESE daylight
31 May - 22:18:38 10° SW 22:21:43 39° SSE 22:24:48 10° E daylight
31 May - 23:54:42 10° W 23:57:59 75° S 00:01:15 10° E visible
01 Jun - 01:31:07 10° W 01:34:19 51° SSW 01:37:29 10° ESE visible
01 Jun - 03:08:05 10° WSW 03:10:15 17° SW 03:12:25 10° S visible
01 Jun - 21:26:11 10° SSW 21:29:04 28° SSE 21:31:56 10° E daylight
01 Jun - 23:01:57 10° WSW 23:05:13 68° S 23:08:29 10° E visible
02 Jun - 00:38:20 10° W 00:41:34 64° SSW 00:44:49 10° ESE visible
02 Jun - 02:14:58 10° W 02:17:41 24° SSW 02:20:24 10° SSE visible
02 Jun - 20:34:00 10° SSW 20:36:27 20° SE 20:38:55 10° E daylight
02 Jun - 22:09:15 10° WSW 22:12:28 57° SSE 22:15:42 10° E daylight
02 Jun - 23:45:33 10° W 23:48:49 73° S 23:52:05 10° E visible
03 Jun - 01:22:02 10° W 01:25:03 34° SSW 01:28:03 10° SE visible
03 Jun - 19:42:19 10° S 19:43:54 13° SE 19:45:31 10° ESE daylight
03 Jun - 21:16:37 10° SW 21:19:45 43° SSE 21:22:53 10° E daylight
03 Jun - 22:52:46 10° W 22:56:03 76° S 22:59:19 10° E visible
04 Jun - 00:29:11 10° W 00:32:22 47° SSW 00:35:31 10° SE visible
04 Jun - 02:06:20 10° WSW 02:08:15 15° SW 02:10:09 10° S visible
04 Jun - 20:24:07 10° SW 20:27:04 31° SSE 20:30:01 10° E daylight
04 Jun - 22:00:00 10° WSW 22:03:16 71° S 22:06:32 10° E daylight
04 Jun - 23:36:23 10° W 23:39:37 60° SSW 23:42:51 10° ESE visible
